Regional Weather Roundup
Issued by NWS

Home | Current Version | Previous Version | Graphics & Text | Print | Product List | Glossary On
Versions: 1 2 3 4 5 6 7 8 9 10 11 12 13 14 15 16 17 18 19 20 21 22 23 24 25 26 27 28 29 30 31 32 33 34 35 36 37 38 39 40 41 42 43 44 45 46 47 48 49 50
000
ASUS43 KLSX 311307
RWRMO

WEATHER SUMMARY FOR MISSOURI
NATIONAL WEATHER SERVICE SPRINGFIELD MO
800 AM CDT WED AUG 31 2016

NOTE: "FAIR" INDICATES FEW OR NO CLOUDS BELOW 12,000 FEET WITH NO
       SIGNIFICANT WEATHER AND/OR OBSTRUCTIONS TO VISIBILITY.
       CURRENT SKY AND/OR WEATHER CONDITIONS ARE NOT AVAILABLE FOR
       CHILLICOTHE AND FARMINGTON.

MOZ001>031-035>038-043-044-053-054-311400-
...NORTHERN AND WESTERN MISSOURI...

CITY           SKY/WX    TMP DP  RH WIND       PRES   REMARKS
KANSAS CTY INT CLOUDY    70  67  90 NE7       30.13R
KANSAS C DTWN  CLOUDY    72  69  90 N5        30.11R
LEE`S SUMMIT   CLOUDY    71  69  93 NE7       30.13R
ST JOSEPH      CLOUDY    72  70  93 N6        30.13R
CHILLICOTHE      N/A     72  71  97 VRB5      30.13R
KIRKSVILLE     CLOUDY    71  68  90 N8        30.12S

$$
MOZ066>068-077>081-088>096-101>105-311400-
...SOUTHWEST MISSOURI...

CITY           SKY/WX    TMP DP  RH WIND       PRES   REMARKS
SPRINGFIELD    CLOUDY    73  69  87 NE7       30.11R
JOPLIN         TSTM      71  70  96 NW8       30.11R FOG
BRANSON        PTSUNNY   72  72 100 CALM      30.10S FOG

$$
MOZ032>034-039>042-045>050-055>058-069>072-311400-
...CENTRAL MISSOURI...

CITY           SKY/WX    TMP DP  RH WIND       PRES   REMARKS
COLUMBIA       MOSUNNY   72  71  97 N6        30.09S
JEFFERSON CITY FOG       71  71 100 CALM      30.08S VSB 3/4
ROLLA          CLOUDY    71  70  96 N5        30.09S FOG
SEDALIA        PTSUNNY   72  70  93 NW3       30.11S FOG
WHITEMAN AFB   PTSUNNY   72  72 100 NW7       30.10R
OSAGE BEACH    FOG       72  72 100 CALM      30.10S VSB 1/2

$$
MOZ051-052-059>065-311400-
...EAST CENTRAL MISSOURI...

CITY           SKY/WX    TMP DP  RH WIND       PRES   REMARKS
ST LOUIS INTL  PTSUNNY   75  71  87 W7        30.07S FOG
SPIRIT OF STL  CLOUDY    72  72 100 CALM      30.06S
ST CHARLES     FOG       71  71 100 CALM      30.06S VSB 1/4

$$
MOZ072>076-082>087-097>100-106>115-311400-
...SOUTH CENTRAL AND SOUTHEAST MISSOURI...

CITY           SKY/WX    TMP DP  RH WIND       PRES   REMARKS
CAPE GIRARDEAU NOT AVBL
FARMINGTON     CLOUDY    70  69  97 CALM      30.09S
POPLAR BLUFF   SUNNY     74  70  87 N5        30.03S
WEST PLAINS    SUNNY     72  68  87 NE3       30.11R

$$


USA.gov is the U.S. government's official web portal to all federal, state and local government web resources and services.